ARIANE 2 DEB, 33574

Orbit data source: Space-Track

ARIANE 2 DEB, 33574 is space debris in HEO originally from a launch on Fri, 27 Jan 1989 UTC launched from the French Guiana (FRGUI). Debris objects in space refer to the collection of defunct objects orbiting the Earth. Examples of debris include non-operational satellites, rocket bodies, and fragments generated from explosions, collisions, or faulty payload assembly.

Loading next visibility...
Identifier
33574, 1989-006BS
Orbit
HEO
Country
Flag of FRFR
Related business
Manufacturer
EADS/LV
Mission
Spacecraft
Bus & Motor
Unknown
Mass
Unknown
Launch date (UTC)
1989-01-27 (37 years ago)
Launch vehicle
Unknown
Launch site
French Guiana (FRGUI)
Object type
Payload
Rocket body
Debris
Shape & HBR
Unknown shape, 0.3 m
Radar Cross Section
Medium (>0.1 m² and <1 m²)

Expand to show TLE details & history
Last TLE update: 3 days ago

TLE from 3 days ago
0 ARIANE 2 DEB
1 33574U 89006BS  26170.77729230  .00000484  00000-0  52053-2 0  9991
2 33574   7.8521 142.8617 7150909 303.3894 317.5307  2.29496842169634
Epoch: 2026-06-19T18:39Z
TLE epoch observation values (Epoch: 2026-06-19T18:39:18.054Z)
Latitude
0.99092°
Longitude
127.74311°
Altitude
15,841.462 km
Speed
4.411 km/s
True Right ascension
21h 02m 16s
True Declination
0° 59' 20"
Sunlit
Object was in daylight at epoch
Visualization orbit readout
Latitude
Unknown
Longitude
Unknown
Altitude
Unknown
Speed
Unknown
Apparent Right ascension
Unknown
Apparent Declination
Unknown
Sunlit
N/A
Visualization observer readout
Local Sidereal Time
23:18:21
Azimuth
Unknown
Elevation
Unknown
Doppler factor
Unknown
Orbital elements
Apogee altitude
35,270.148 km
Perigee altitude
540.432 km
Semi-major axis
24,283.427 km
Eccentricity
0.71509
Inclination
7.8521°
RAAN
142.8617°
Arg. of periapsis
303.3894°
True anomaly
229.35582°
Mean anomaly
317.5307°
Eccentric anomaly
276.85161°
Mean motion
0.57356 °/min
Orbital period
627.66 mins
BSTAR
0.0052053
Loading maneuver chart data...
Computing Atmospheric mass density...
Loading historical data...
Loading historical data...
Loading historical data...
Loading historical data...
Loading historical data...
Loading historical data...
Loading historical data...

Documentation

Showing up to 5 results
|